Aérodrome :
LOGIN :

S'inscrire | Disclaimer

   EN    FR    IT 

 










Légende :    VFR   VFR Marginal   IFR   IFR Intensif   IFR Très Intensif
Visi : 
Plafond : 
>= 8 km
>= 3000ft
5 à 8 km
1000 à 3000 ft
1500m à 5 km
500 à 1000 ft
800 à 1500m
200 à 500 ft
< 800m
< 200 ft
Symboles :   Orages  Brouillard  Fortes neiges  Fortes précipitations  Vent > 20 kt
SIGMETs :   Divers  Orages  Givrage  Turbulence  Onde Orograph.  Cendres Volcan.







- Altitude de l'aérodrome : 390 ft
- Code IATA : NQY
- Voir les cartes d'approche


EGHQ - Newquay

DERNIER METAR :
  • 221820Z 18013KT 4000 -DZ BR BKN004 13/12 Q1018

METARs EXPIRÉS :
  • 221750Z 18015KT 6000 -DZ BKN004 13/12 Q1018
  • 221720Z 19015KT 5000 -DZ BR BKN008 14/12 Q1019
  • 221650Z 19015KT 6000 -DZ BKN007 14/12 Q1018
  • 221620Z 19015KT 9000 BKN008 14/12 Q1019
  • 221550Z 20015KT 9000 -RADZ BKN008 14/12 Q1019

TAF AMD TAF EGHQ
Valide du 22 à 18h jusqu'au 22 à 21h UTC


221833Z 2218/2221 18014KT 9999 FEW015
TEMPO 2218/2221 4000 -RADZ BR BKN004
Pas de NOTAMs connus pour ce terrain.



MET'MAP, la Météo Aéronautique d'un coup d'oeil ! - Copyright ORBIFLY Décembre 2007 - Disclaimer

ORBIFLY MET'MAP TEAM :

Programmation & Développement : Alexandra Zaïnal
Conception & Développement : Baudouin d'Aumeries
Co-Programmation & Développement : Marc-Olivier Méhu
Soutien technique & logistique : Manuel Goepfert

Contact : metmap@orbifly.com




SOURCES & CREDITS :

   NOAA